Regional Weather Roundup
Issued by NWS Sioux Falls, SD

Home | Current Version | Previous Version | Graphics & Text | Print | Product List | Glossary On
Versions: 1 2 3 4 5 6 7 8 9 10 11 12 13 14 15 16 17 18 19 20 21 22 23 24 25 26 27 28 29 30 31 32 33 34 35 36 37 38 39 40 41 42 43 44 45 46 47 48 49 50
000
ASUS43 KFSD 021702
RWRFSD

WEATHER ROUNDUP FOR SE SOUTH DAKOTA/SW MINNESOTA/NW IOWA
NATIONAL WEATHER SERVICE SIOUX FALLS SD
1200 PM CDT TUE SEP 02 2014

NOTE: "FAIR" INDICATES FEW OR NO CLOUDS BELOW 12,000 FEET WITH NO
SIGNIFICANT WEATHER AND OR OBSTRUCTIONS TO VISIBILITY.


SDZ038>040-050-052>070-021800-
SOUTHEAST SOUTH DAKOTA

CITY           SKY/WX    TMP DP  RH WIND       PRES   REMARKS
CHAMBERLAIN    SUNNY     73  54  51 SW9       29.95S
HURON          SUNNY     73  55  53 SW9       29.92S
MADISON        FAIR      70  55  60 W7        29.96S
MITCHELL         N/A    N/A N/A N/A MISG      29.96S
SIOUX FALLS    MOSUNNY   70  61  73 SW8       29.96S
WINNER         FAIR      75  52  44 SW12      29.96S
YANKTON        SUNNY     70  57  64 W3        29.97S
$$

MNZ071-072-080-081-089-090-097-098-021800-
SOUTHWEST MINNESOTA

CITY           SKY/WX    TMP DP  RH WIND       PRES   REMARKS
FAIRMONT       SUNNY     72  55  56 W9        29.95S
JACKSON        SUNNY     72  55  56 SW9       29.96S
LUVERNE        SUNNY     70  59  68 SW6       29.97S
MARSHALL       SUNNY     75  52  43 SW6       29.91S
MONTEVIDEO     SUNNY     75  59  57 W5        29.91S
PIPESTONE      SUNNY     72  57  60 SW6       29.96R
REDWOOD FALLS  SUNNY     74  54  49 S8        29.92R
TRACY          SUNNY     74  55  51 SW5       29.94S
WINDOM         SUNNY     72  59  64 S5        29.94S
WORTHINGTON    SUNNY     70  57  64 SW10      29.97S
$$

IAZ001>003-012>014-020>022-031-032-NEZ013-014-SDZ071-021800-
NORTHWEST IOWA

CITY           SKY/WX    TMP DP  RH WIND       PRES   REMARKS
CHEROKEE       SUNNY     71  61  70 SW6       29.98S
DENISON        SUNNY     68  61  77 VRB6      29.98F
ESTHERVILLE    SUNNY     71  58  63 W9        29.96S
LE MARS        SUNNY     72  61  68 S9        29.98F
ORANGE CITY    SUNNY     70  57  64 SW9       29.98S
SHELDON        SUNNY     70  61  73 SW9       29.96F
SIOUX CITY     SUNNY     73  59  61 SW7       29.98F
SPENCER        SUNNY     72  59  63 SW8       29.97S
STORM LAKE     SUNNY     70  61  73 VRB7      29.98F
$$

ABBREVIATIONS USED IN REMARKS
   TC - TEMPERATURE IN CELSIUS
  WCI - WIND CHILL INDEX
   HX - HEAT INDEX
  VSB - VISIBILITY



USA.gov is the U.S. government's official web portal to all federal, state and local government web resources and services.